This demonstration page uses our WeatherBlox Daily Observations layout. Learn more.

40.92945, -100.16068

Hourly Observations for March 9, 2015

Temp ( °F °C ) Dew Point ( °F °C ) Humidity (%) Winds ( mph kmh ) Pressure ( in mb ) Visibility ( mi km ) Precip ( " mm )
12:15 am 00:15 Clear 25 -4.1 19 -7.5 77 77 Calm 30.24 1024 10 16.0934 N/A
12:35 am 00:35 Clear 24 -4.2 18 -7.7 77 77 Calm 30.24 1024 10 16.0934 N/A
12:55 am 00:55 Clear 24 -4.3 18 -7.6 78 78 Calm 30.24 1024 10 16.0934 N/A
1:15 am 01:15 Clear 24 -4.4 18 -7.7 78 78 N 5 7 30.24 1024 10 16.0934 N/A
1:35 am 01:35 Clear 24 -4.7 18 -8 78 78 N 3 6 30.27 1025 10 16.0934 N/A
1:55 am 01:55 Clear 23 -5 17 -8.2 79 79 NW 3 6 30.27 1025 10 16.0934 N/A
2:15 am 02:15 Clear 23 -5.2 17 -8.3 79 79 Calm 30.27 1025 10 16.0934 N/A
2:35 am 02:35 Clear 23 -4.8 18 -8 79 79 Calm 30.27 1025 10 16.0934 N/A
2:55 am 02:55 Clear 24 -4.7 18 -8 78 78 Calm 30.27 1025 10 16.0934 N/A
3:15 am 03:15 Clear 25 -4 18 -7.7 76 76 Calm 30.24 1024 10 16.0934 N/A
3:35 am 03:35 Clear 21 -5.9 17 -8.6 81 81 Calm 30.27 1025 10 16.0934 N/A
3:55 am 03:55 Clear 21 -5.9 17 -8.1 85 85 Calm 30.27 1025 10 16.0934 N/A
4:15 am 04:15 Clear 21 -6 17 -8.3 84 84 Calm 30.27 1025 10 16.0934 N/A
4:35 am 04:35 Clear 20 -6.5 16 -8.8 84 84 Calm 30.24 1024 10 16.0934 N/A
4:55 am 04:55 Clear 21 -6.3 16 -8.7 83 83 Calm 30.24 1024 10 16.0934 N/A
5:15 am 05:15 Clear 22 -5.6 18 -8 83 83 Calm 30.24 1024 10 16.0934 N/A
5:35 am 05:35 Clear 21 -6.2 17 -8.4 85 85 Calm 30.24 1024 10 16.0934 N/A
5:55 am 05:55 Clear 21 -6 18 -8 86 86 NNE 3 6 30.24 1024 10 16.0934 N/A
6:15 am 06:15 Clear 22 -5.8 18 -7.8 86 86 Calm 30.24 1024 10 16.0934 N/A
6:35 am 06:35 Clear 22 -5.6 19 -7.5 87 87 Calm 30.24 1024 10 16.0934 N/A
6:55 am 06:55 Clear 22 -5.4 18 -7.7 84 84 Calm 30.24 1024 10 16.0934 N/A
7:15 am 07:15 Clear 21 -6.2 17 -8.2 86 86 Calm 30.24 1024 10 16.0934 N/A
7:35 am 07:35 Clear 21 -6 18 -8 86 86 Calm 30.24 1024 10 16.0934 N/A
7:55 am 07:55 Clear 21 -6.1 17 -8.3 85 85 Calm 30.24 1024 10 16.0934 N/A
8:15 am 08:15 Sunny 21 -6 18 -7.9 87 87 Calm 30.24 1024 7 11.26538 N/A
8:35 am 08:35 Sunny 24 -4.2 21 -5.9 88 88 Calm 30.21 1023 10 16.0934 N/A
8:55 am 08:55 Sunny 28 -2.5 24 -4.3 88 88 Calm 30.21 1023 10 16.0934 N/A
9:15 am 09:15 Sunny 32 0.1 28 -2.3 84 84 S 3 6 30.18 1022 10 16.0934 N/A
9:35 am 09:35 Sunny 40 4.3 31 -0.5 71 71 Calm 30.15 1021 10 16.0934 N/A
9:55 am 09:55 Sunny 43 6.2 32 0 65 65 SSW 10 17 30.12 1020 10 16.0934 N/A
10:15 am 10:15 Sunny 44 6.8 32 -0.1 62 62 SSW 12 19 30.12 1020 10 16.0934 N/A
10:35 am 10:35 Sunny 45 7.3 32 -0.1 60 60 SW 10 17 30.12 1020 10 16.0934 N/A
10:55 am 10:55 Sunny 47 8.6 32 -0.1 55 55 SSW 12 19 30.09 1019 10 16.0934 N/A
11:15 am 11:15 Sunny 48 9 31 -0.5 52 52 SSW 15 24 30.09 1019 10 16.0934 N/A
11:35 am 11:35 Sunny 49 9.7 31 -0.6 49 49 SSW 13 20 30.09 1019 10 16.0934 N/A
11:55 am 11:55 Sunny 51 10.7 30 -0.9 45 45 SSW 13 20 30.03 1017 10 16.0934 N/A
12:15 pm 12:15 Sunny 52 11.3 30 -1 43 43 SSW 12 19 30.03 1017 10 16.0934 N/A
12:35 pm 12:35 Sunny 53 11.7 29 -1.4 40 40 SSW 13 20 30.03 1017 10 16.0934 N/A
12:55 pm 12:55 Sunny 54 12.4 28 -2.4 36 36 SSW 16 26 30.03 1017 10 16.0934 N/A
1:15 pm 13:15 Sunny 56 13.1 26 -3.2 32 32 SW 17 28 30.03 1017 10 16.0934 N/A
1:35 pm 13:35 Sunny 57 13.8 25 -3.9 29 29 SSW 15 24 30 1016 10 16.0934 N/A
1:55 pm 13:55 Sunny 58 14.2 26 -3.5 29 29 SSW 15 24 30 1016 10 16.0934 N/A
2:15 pm 14:15 Sunny 59 15 24 -4.2 26 26 S 12 19 29.97 1015 10 16.0934 N/A
2:35 pm 14:35 Sunny 60 15.8 24 -4.4 25 25 SSW 17 28 29.97 1015 10 16.0934 N/A
2:55 pm 14:55 Sunny 62 16.6 23 -4.9 23 23 SW 13 20 29.91 1013 10 16.0934 N/A
3:15 pm 15:15 Sunny 62 16.7 22 -5.7 21 21 SW 15 24 29.91 1013 10 16.0934 N/A
3:35 pm 15:35 Sunny 63 17.1 22 -5.6 21 21 SSW 14 22 29.91 1013 10 16.0934 N/A
3:55 pm 15:55 Sunny 63 17.4 21 -6 20 20 SSW 13 20 29.88 1012 10 16.0934 N/A
4:15 pm 16:15 Sunny 64 18 22 -5.6 20 20 SSW 13 20 29.88 1012 10 16.0934 N/A
4:35 pm 16:35 Sunny 64 18 23 -5.1 20 20 SSW 16 26 29.88 1012 10 16.0934 N/A
4:55 pm 16:55 Sunny 65 18.1 23 -5.1 20 20 SSW 14 22 29.85 1011 10 16.0934 N/A
5:15 pm 17:15 Sunny 65 18.2 23 -4.9 20 20 SSW 14 22 29.85 1011 10 16.0934 N/A
5:35 pm 17:35 Sunny 65 18.2 24 -4.5 21 21 SSW 15 24 29.85 1011 10 16.0934 N/A
5:55 pm 17:55 Sunny 65 18.2 25 -4 22 22 SSW 14 22 29.85 1011 10 16.0934 N/A
6:15 pm 18:15 Sunny 64 18 25 -3.8 23 23 SSW 12 19 29.85 1011 10 16.0934 N/A
6:35 pm 18:35 Sunny 64 17.7 26 -3.4 24 24 S 12 19 29.85 1011 10 16.0934 N/A
6:55 pm 18:55 Sunny 62 16.8 26 -3.3 25 25 S 12 19 29.85 1011 10 16.0934 N/A
7:15 pm 19:15 Sunny 60 15.6 26 -3.2 27 27 S 9 15 29.85 1011 10 16.0934 N/A
7:35 pm 19:35 Sunny 56 13.2 26 -3.5 31 31 SSE 9 15 29.88 1012 10 16.0934 N/A
7:55 pm 19:55 Clear 53 11.6 25 -3.8 34 34 SSE 10 17 29.91 1013 10 16.0934 N/A
8:15 pm 20:15 Clear 52 11 25 -4 35 35 SSE 10 17 29.91 1013 10 16.0934 N/A
8:35 pm 20:35 Clear 50 10.2 25 -4.1 37 37 SSE 9 15 29.91 1013 10 16.0934 N/A
8:55 pm 20:55 Clear 50 9.8 24 -4.2 37 37 SSE 9 15 29.91 1013 10 16.0934 N/A
9:15 pm 21:15 Clear 50 10 24 -4.5 36 36 SSE 9 15 29.91 1013 10 16.0934 N/A
9:35 pm 21:35 Clear 50 9.9 24 -4.5 36 36 SSE 7 11 29.91 1013 10 16.0934 N/A
9:55 pm 21:55 Clear 48 9.1 24 -4.5 38 38 SE 7 11 29.94 1014 10 16.0934 N/A
10:15 pm 22:15 Clear 47 8.6 24 -4.5 40 40 SSE 7 11 29.94 1014 10 16.0934 N/A
10:35 pm 22:35 Clear 49 9.5 24 -4.6 37 37 S 12 19 29.91 1013 10 16.0934 N/A
10:55 pm 22:55 Clear 50 9.8 23 -5 35 35 S 13 20 29.91 1013 10 16.0934 N/A
11:15 pm 23:15 Clear 50 10 23 -5 35 35 S 13 20 29.91 1013 10 16.0934 N/A
11:35 pm 23:35 Clear 48 8.8 23 -4.8 38 38 S 9 15 29.94 1014 10 16.0934 N/A
11:55 pm 23:55 Clear 48 8.9 24 -4.6 38 38 S 13 20 29.94 1014 10 16.0934 N/A

Powered by AerisWeather